Regional Weather Roundup
Issued by NWS

Home | Current Version | Previous Version | Text Only | Print | Product List | Glossary On
Versions: 1 2 3 4 5 6 7 8 9 10 11 12 13 14 15 16 17 18 19 20 21 22 23 24 25 26 27 28 29 30 31 32 33 34 35 36 37 38 39 40 41 42 43 44 45 46 47 48 49 50
000
ASUS43 KLSX 171607
RWRMO

WEATHER SUMMARY FOR MISSOURI
NATIONAL WEATHER SERVICE SPRINGFIELD MO
1100 AM CDT WED SEP 17 2014

NOTE: "FAIR" INDICATES FEW OR NO CLOUDS BELOW 12,000 FEET WITH NO
       SIGNIFICANT WEATHER AND/OR OBSTRUCTIONS TO VISIBILITY.
       CURRENT SKY AND/OR WEATHER CONDITIONS ARE NOT AVAILABLE FOR
       CHILLICOTHE AND FARMINGTON.

MOZ001>031-035>038-043-044-053-054-171700-
...NORTHERN AND WESTERN MISSOURI...

CITY           SKY/WX    TMP DP  RH WIND       PRES   REMARKS
KANSAS CTY INT CLOUDY    67  65  93 SE5       29.94S
KANSAS C DTWN  CLOUDY    67  64  90 E7        29.93S FOG
LEE`S SUMMIT   CLOUDY    66  64  93 E6        29.95S FOG
ST JOSEPH      CLOUDY    65  62  90 SE3       29.95S
CHILLICOTHE      N/A     66  61  84 VRB6      29.97S
KIRKSVILLE     CLOUDY    62  58  86 SE8       29.99F

$$
MOZ066>068-077>081-088>096-101>105-171700-
...SOUTHWEST MISSOURI...

CITY           SKY/WX    TMP DP  RH WIND       PRES   REMARKS
SPRINGFIELD    LGT RAIN  67  65  93 S10       29.96F
JOPLIN         SUNNY     80  71  74 SW18G26   29.93F

$$
MOZ032>034-039>042-045>050-055>058-069>072-171700-
...CENTRAL MISSOURI...

CITY           SKY/WX    TMP DP  RH WIND       PRES   REMARKS
COLUMBIA         N/A     60  59  96 MISG      29.98R
JEFFERSON CITY CLOUDY    62  60  93 E5        29.97R
ROLLA          CLOUDY    60  58  92 SE10      29.97F
SEDALIA        HVY RAIN  66  63  90 CALM      29.97R VSB 1
WHITEMAN AFB   DRIZZLE   66  64  94 CALM      29.95R
OSAGE BEACH    CLOUDY    64  63  94 W3        29.97R

$$
MOZ051-052-059>065-171700-
...EAST CENTRAL MISSOURI...

CITY           SKY/WX    TMP DP  RH WIND       PRES   REMARKS
ST LOUIS INTL  LGT RAIN  61  52  72 SE12      30.03F
SPIRIT OF STL  CLOUDY    58  54  86 VRB3      30.02R
ST CHARLES     PTSUNNY   61  52  72 E9        30.03F

$$
MOZ072>076-082>087-097>100-106>115-171700-
...SOUTH CENTRAL AND SOUTHEAST MISSOURI...

CITY           SKY/WX    TMP DP  RH WIND       PRES   REMARKS
CAPE GIRARDEAU CLOUDY    60  55  83 W9G21     30.11R
FARMINGTON     CLOUDY    55  54  94 SE5       30.07F
POPLAR BLUFF   CLOUDY    59  52  77 VRB6G17   30.08R
WEST PLAINS    RAIN      60  58  92 VRB5      30.07F FOG

$$


USA.gov is the U.S. government's official web portal to all federal, state and local government web resources and services.